Time,TemperatureF,DewpointF,PressureIn,WindDirection,WindDirectionDegrees,WindSpeedMPH,WindSpeedGustMPH,Humidity,HourlyPrecipIn,Conditions,Clouds,dailyrainin,SoftwareType,DateUTC
2013-08-09 14:27:00,74.8,60.0,29.86,NW,314,0.0,1.0,60,0.00,,---,0.00,VWS V14.01,2013-08-09 21:27:00,
2013-08-09 14:28:00,74.8,60.0,29.86,NW,313,2.0,4.0,60,0.00,,---,0.00,VWS V14.01,2013-08-09 21:28:00,
2013-08-09 14:34:00,75.0,59.7,29.86,WNW,293,0.0,9.0,59,0.00,,---,0.00,VWS V14.01,2013-08-09 21:34:00,
2013-08-09 14:39:00,75.1,59.3,29.86,WNW,290,0.0,9.0,58,0.00,,---,0.00,VWS V14.01,2013-08-09 21:39:00,
2013-08-09 14:44:00,75.0,59.2,29.86,WNW,295,4.0,9.0,58,0.00,,---,0.00,VWS V14.01,2013-08-09 21:44:00,
2013-08-09 14:49:00,74.8,59.0,29.86,NW,322,2.0,9.0,58,0.00,,---,0.00,VWS V14.01,2013-08-09 21:49:00,
2013-08-09 14:54:00,74.9,59.6,29.86,NW,308,3.0,9.0,59,0.00,,---,0.00,VWS V14.01,2013-08-09 21:54:00,
2013-08-09 14:59:00,74.9,59.6,29.86,NW,319,5.0,9.0,59,0.00,,---,0.00,VWS V14.01,2013-08-09 21:59:00,
2013-08-09 15:04:00,74.9,59.6,29.86,WNW,302,0.0,4.0,59,0.00,,---,0.00,VWS V14.01,2013-08-09 22:04:00,
2013-08-09 15:09:00,75.2,59.9,29.86,NW,309,2.0,6.0,59,0.00,,---,0.00,VWS V14.01,2013-08-09 22:09:00,
2013-08-09 15:14:00,75.1,59.3,29.85,NW,307,2.0,9.0,58,0.00,,---,0.00,VWS V14.01,2013-08-09 22:14:00,
2013-08-09 15:19:00,75.6,59.3,29.85,NW,313,4.0,9.0,57,0.00,,---,0.00,VWS V14.01,2013-08-09 22:19:00,
2013-08-09 15:24:00,75.9,59.6,29.85,WNW,284,3.0,9.0,57,0.00,,---,0.00,VWS V14.01,2013-08-09 22:24:00,
2013-08-09 15:29:00,76.8,59.9,29.85,West,268,2.0,9.0,56,0.00,,---,0.00,VWS V14.01,2013-08-09 22:29:00,
2013-08-09 15:34:00,77.6,60.2,29.85,SW,214,0.0,6.0,55,0.00,,---,0.00,VWS V14.01,2013-08-09 22:34:00,
2013-08-09 15:39:00,78.0,60.0,29.85,NW,304,0.0,6.0,54,0.00,,---,0.00,VWS V14.01,2013-08-09 22:39:00,
2013-08-09 15:44:00,78.2,59.2,29.85,NNW,327,3.0,7.0,52,0.00,,---,0.00,VWS V14.01,2013-08-09 22:44:00,
2013-08-09 15:50:00,77.8,59.8,29.85,NW,308,1.0,7.0,54,0.00,,---,0.00,VWS V14.01,2013-08-09 22:50:00,
2013-08-09 15:55:00,77.9,60.5,29.85,WSW,237,6.0,7.0,55,0.00,,---,0.00,VWS V14.01,2013-08-09 22:55:00,
2013-08-09 16:00:00,78.3,60.3,29.85,WSW,242,3.0,7.0,54,0.00,,---,0.00,VWS V14.01,2013-08-09 23:00:00,
2013-08-09 16:05:00,78.7,60.2,29.85,West,264,7.0,7.0,53,0.00,,---,0.00,VWS V14.01,2013-08-09 23:05:00,
2013-08-09 16:10:00,78.2,60.7,29.84,WNW,287,2.0,8.0,55,0.00,,---,0.00,VWS V14.01,2013-08-09 23:10:00,
2013-08-09 16:15:00,77.7,60.3,29.84,NW,304,0.0,8.0,55,0.00,,---,0.00,VWS V14.01,2013-08-09 23:15:00,
2013-08-09 16:20:00,77.3,59.9,29.85,WNW,299,2.0,8.0,55,0.00,,---,0.00,VWS V14.01,2013-08-09 23:20:00,
2013-08-09 16:25:00,77.1,60.2,29.84,NW,309,1.0,8.0,56,0.00,,---,0.00,VWS V14.01,2013-08-09 23:25:00,
2013-08-09 16:30:00,77.6,60.7,29.84,WSW,242,0.0,8.0,56,0.00,,---,0.00,VWS V14.01,2013-08-09 23:30:00,
2013-08-09 16:35:00,78.5,61.0,29.84,West,271,2.0,10.0,55,0.00,,---,0.00,VWS V14.01,2013-08-09 23:35:00,
2013-08-09 16:40:00,78.7,60.7,29.84,SSW,213,4.0,10.0,54,0.00,,---,0.00,VWS V14.01,2013-08-09 23:40:00,
2013-08-09 16:46:00,79.2,60.6,29.84,WNW,295,6.0,10.0,53,0.00,,---,0.00,VWS V14.01,2013-08-09 23:46:00,
2013-08-09 16:51:00,79.1,60.5,29.83,WNW,283,0.0,10.0,53,0.00,,---,0.00,VWS V14.01,2013-08-09 23:51:00,
2013-08-09 16:56:00,79.3,60.7,29.84,WSW,254,1.0,10.0,53,0.00,,---,0.00,VWS V14.01,2013-08-09 23:56:00,
2013-08-09 17:01:00,79.4,60.8,29.84,WNW,298,1.0,4.0,53,0.00,,---,0.00,VWS V14.01,2013-08-10 00:01:00,
2013-08-09 17:06:00,79.2,60.6,29.84,NW,323,6.0,7.0,53,0.00,,---,0.00,VWS V14.01,2013-08-10 00:06:00,
2013-08-09 17:11:00,79.5,60.9,29.83,NW,317,6.0,9.0,53,0.00,,---,0.00,VWS V14.01,2013-08-10 00:11:00,
2013-08-09 17:16:00,79.3,60.7,29.83,West,276,2.0,9.0,53,0.00,,---,0.00,VWS V14.01,2013-08-10 00:16:00,
2013-08-09 17:21:00,79.4,60.8,29.83,West,263,7.0,9.0,53,0.00,,---,0.00,VWS V14.01,2013-08-10 00:21:00,
2013-08-09 17:26:00,79.5,60.3,29.83,WNW,288,7.0,9.0,52,0.00,,---,0.00,VWS V14.01,2013-08-10 00:26:00,
2013-08-09 17:31:00,79.4,60.3,29.83,SSW,204,4.0,7.0,52,0.00,,---,0.00,VWS V14.01,2013-08-10 00:31:00,
2013-08-09 17:36:00,79.8,59.5,29.83,West,271,3.0,8.0,50,0.00,,---,0.00,VWS V14.01,2013-08-10 00:36:00,
2013-08-09 17:42:00,80.0,60.3,29.83,West,275,3.0,9.0,51,0.00,,---,0.00,VWS V14.01,2013-08-10 00:42:00,
2013-08-09 17:47:00,80.1,60.4,29.83,West,269,2.0,9.0,51,0.00,,---,0.00,VWS V14.01,2013-08-10 00:47:00,
2013-08-09 17:52:00,80.1,59.8,29.83,WNW,301,3.0,9.0,50,0.00,,---,0.00,VWS V14.01,2013-08-10 00:52:00,
2013-08-09 17:57:00,79.9,59.6,29.83,WSW,254,4.0,9.0,50,0.00,,---,0.00,VWS V14.01,2013-08-10 00:57:00,
2013-08-09 18:02:00,80.2,59.9,29.83,West,266,1.0,4.0,50,0.00,,---,0.00,VWS V14.01,2013-08-10 01:02:00,
2013-08-09 18:07:00,80.0,59.1,29.83,WNW,292,1.0,8.0,49,0.00,,---,0.00,VWS V14.01,2013-08-10 01:07:00,
2013-08-09 18:12:00,79.7,58.9,29.82,West,262,5.0,8.0,49,0.00,,---,0.00,VWS V14.01,2013-08-10 01:12:00,
2013-08-09 18:17:00,79.3,59.6,29.82,West,261,0.0,8.0,51,0.00,,---,0.00,VWS V14.01,2013-08-10 01:17:00,
2013-08-09 18:22:00,79.3,59.1,29.82,West,259,2.0,8.0,50,0.00,,---,0.00,VWS V14.01,2013-08-10 01:22:00,
2013-08-09 18:27:00,79.1,58.3,29.82,WSW,255,3.0,8.0,49,0.00,,---,0.00,VWS V14.01,2013-08-10 01:27:00,
2013-08-09 18:32:00,78.9,58.1,29.82,WNW,290,1.0,5.0,49,0.00,,---,0.00,VWS V14.01,2013-08-10 01:32:00,
2013-08-09 18:37:00,78.6,57.9,29.82,NW,321,2.0,6.0,49,0.00,,---,0.00,VWS V14.01,2013-08-10 01:37:00,
2013-08-09 18:42:00,78.1,59.1,29.82,West,269,0.0,6.0,52,0.00,,---,0.00,VWS V14.01,2013-08-10 01:42:00,
2013-08-09 18:47:00,77.8,59.3,29.82,WNW,295,0.0,6.0,53,0.00,,---,0.00,VWS V14.01,2013-08-10 01:47:00,
2013-08-09 18:52:00,77.7,59.2,29.82,WNW,292,0.0,6.0,53,0.00,,---,0.00,VWS V14.01,2013-08-10 01:52:00,
2013-08-09 18:57:00,77.8,59.3,29.82,WSW,241,2.0,6.0,53,0.00,,---,0.00,VWS V14.01,2013-08-10 01:57:00,
2013-08-09 19:02:00,77.8,59.3,29.82,West,267,0.0,1.0,53,0.00,,---,0.00,VWS V14.01,2013-08-10 02:02:00,
2013-08-09 19:07:00,78.1,59.6,29.82,West,267,0.0,1.0,53,0.00,,---,0.00,VWS V14.01,2013-08-10 02:07:00,
2013-08-09 19:12:00,78.4,60.4,29.82,West,267,0.0,1.0,54,0.00,,---,0.00,VWS V14.01,2013-08-10 02:12:00,
2013-08-09 19:18:00,78.7,60.2,29.82,WSW,257,2.0,2.0,53,0.00,,---,0.00,VWS V14.01,2013-08-10 02:18:00,
2013-08-09 19:23:00,78.6,59.5,29.82,WNW,284,1.0,4.0,52,0.00,,---,0.00,VWS V14.01,2013-08-10 02:23:00,
2013-08-09 19:28:00,78.5,60.0,29.82,WNW,292,0.0,4.0,53,0.00,,---,0.00,VWS V14.01,2013-08-10 02:28:00,
2013-08-09 19:33:00,78.3,59.8,29.82,WNW,291,1.0,2.0,53,0.00,,---,0.00,VWS V14.01,2013-08-10 02:33:00,
2013-08-09 19:38:00,77.8,58.8,29.82,WNW,292,0.0,2.0,52,0.00,,---,0.00,VWS V14.01,2013-08-10 02:38:00,
2013-08-09 19:43:00,77.3,58.8,29.82,WNW,291,0.0,2.0,53,0.00,,---,0.00,VWS V14.01,2013-08-10 02:43:00,
2013-08-09 19:48:00,76.8,58.9,29.82,West,276,0.0,2.0,54,0.00,,---,0.00,VWS V14.01,2013-08-10 02:48:00,
2013-08-09 19:53:00,76.5,59.2,29.83,West,277,0.0,2.0,55,0.00,,---,0.00,VWS V14.01,2013-08-10 02:53:00,
2013-08-09 19:58:00,76.4,59.1,29.83,West,277,0.0,2.0,55,0.00,,---,0.00,VWS V14.01,2013-08-10 02:58:00,
2013-08-09 20:03:00,76.4,59.1,29.83,West,276,0.0,0.0,55,0.00,,---,0.00,VWS V14.01,2013-08-10 03:03:00,
2013-08-09 20:08:00,76.1,58.8,29.83,West,277,0.0,1.0,55,0.00,,---,0.00,VWS V14.01,2013-08-10 03:08:00,
2013-08-09 20:09:00,76.0,58.7,29.83,West,276,0.0,1.0,55,0.00,,---,0.00,VWS V14.01,2013-08-10 03:09:00,
2013-08-09 20:14:00,75.5,58.7,29.83,West,280,0.0,1.0,56,0.00,,---,0.00,VWS V14.01,2013-08-10 03:14:00,
2013-08-09 20:19:00,75.0,58.8,29.83,West,280,0.0,1.0,57,0.00,,---,0.00,VWS V14.01,2013-08-10 03:19:00,
2013-08-09 20:24:00,74.6,59.3,29.84,West,280,0.0,1.0,59,0.00,,---,0.00,VWS V14.01,2013-08-10 03:24:00,
2013-08-09 20:29:00,74.3,59.5,29.84,West,280,0.0,1.0,60,0.00,,---,0.00,VWS V14.01,2013-08-10 03:29:00,
2013-08-09 20:34:00,74.0,59.7,29.84,West,280,0.0,0.0,61,0.00,,---,0.00,VWS V14.01,2013-08-10 03:34:00,
2013-08-09 20:39:00,73.6,59.3,29.84,West,280,0.0,0.0,61,0.00,,---,0.00,VWS V14.01,2013-08-10 03:39:00,
2013-08-09 20:45:00,73.2,59.4,29.84,West,280,0.0,0.0,62,0.00,,---,0.00,VWS V14.01,2013-08-10 03:45:00,
2013-08-09 20:50:00,72.9,59.1,29.84,West,280,0.0,0.0,62,0.00,,---,0.00,VWS V14.01,2013-08-10 03:50:00,
2013-08-09 20:55:00,72.6,59.3,29.84,West,280,0.0,0.0,63,0.00,,---,0.00,VWS V14.01,2013-08-10 03:55:00,
2013-08-09 21:00:00,72.4,58.7,29.85,West,280,0.0,1.0,62,0.00,,---,0.00,VWS V14.01,2013-08-10 04:00:00,
2013-08-09 21:01:00,72.3,58.6,29.85,West,280,0.0,0.0,62,0.00,,---,0.00,VWS V14.01,2013-08-10 04:01:00,
2013-08-09 21:02:00,72.3,58.6,29.85,West,280,0.0,0.0,62,0.00,,---,0.00,VWS V14.01,2013-08-10 04:02:00,
2013-08-09 21:07:00,72.1,59.3,29.85,West,280,0.0,0.0,64,0.00,,---,0.00,VWS V14.01,2013-08-10 04:07:00,
2013-08-09 21:12:00,71.8,59.4,29.85,West,280,0.0,0.0,65,0.00,,---,0.00,VWS V14.01,2013-08-10 04:12:00,
2013-08-09 21:17:00,71.5,58.7,29.85,West,280,0.0,0.0,64,0.00,,---,0.00,VWS V14.01,2013-08-10 04:17:00,
2013-08-09 21:22:00,71.3,58.5,29.85,West,280,0.0,0.0,64,0.00,,---,0.00,VWS V14.01,2013-08-10 04:22:00,
2013-08-09 21:27:00,71.2,58.8,29.85,West,280,0.0,0.0,65,0.00,,---,0.00,VWS V14.01,2013-08-10 04:27:00,
2013-08-09 21:32:00,71.0,58.7,29.84,West,280,0.0,0.0,65,0.00,,---,0.00,VWS V14.01,2013-08-10 04:32:00,
2013-08-09 21:37:00,70.7,58.8,29.84,West,280,0.0,1.0,66,0.00,,---,0.00,VWS V14.01,2013-08-10 04:37:00,
2013-08-09 21:42:00,70.5,59.0,29.85,West,280,0.0,1.0,67,0.00,,---,0.00,VWS V14.01,2013-08-10 04:42:00,
2013-08-09 21:47:00,70.3,58.8,29.85,West,280,0.0,1.0,67,0.00,,---,0.00,VWS V14.01,2013-08-10 04:47:00,
2013-08-09 21:52:00,70.1,59.1,29.85,West,280,0.0,1.0,68,0.00,,---,0.00,VWS V14.01,2013-08-10 04:52:00,
2013-08-09 21:57:00,69.9,59.3,29.85,West,280,0.0,1.0,69,0.00,,---,0.00,VWS V14.01,2013-08-10 04:57:00,
2013-08-09 22:02:00,69.7,59.5,29.86,West,280,0.0,0.0,70,0.00,,---,0.00,VWS V14.01,2013-08-10 05:02:00,
2013-08-09 22:08:00,69.5,59.3,29.86,West,280,0.0,0.0,70,0.00,,---,0.00,VWS V14.01,2013-08-10 05:08:00,
2013-08-09 22:13:00,69.2,59.0,29.86,West,280,0.0,0.0,70,0.00,,---,0.00,VWS V14.01,2013-08-10 05:13:00,
2013-08-09 22:18:00,69.0,58.8,29.85,West,280,0.0,0.0,70,0.00,,---,0.00,VWS V14.01,2013-08-10 05:18:00,
2013-08-09 22:23:00,68.9,58.7,29.85,West,280,0.0,2.0,70,0.00,,---,0.00,VWS V14.01,2013-08-10 05:23:00,
2013-08-09 22:28:00,68.9,59.1,29.84,West,280,1.0,2.0,71,0.00,,---,0.00,VWS V14.01,2013-08-10 05:28:00,
2013-08-09 22:33:00,68.9,58.7,29.84,WNW,300,0.0,3.0,70,0.00,,---,0.00,VWS V14.01,2013-08-10 05:33:00,
2013-08-09 22:38:00,68.8,59.0,29.84,WNW,301,0.0,3.0,71,0.00,,---,0.00,VWS V14.01,2013-08-10 05:38:00,
2013-08-09 22:43:00,68.7,59.3,29.84,WNW,301,0.0,3.0,72,0.00,,---,0.00,VWS V14.01,2013-08-10 05:43:00,
2013-08-09 22:48:00,68.6,58.8,29.84,WNW,301,0.0,3.0,71,0.00,,---,0.00,VWS V14.01,2013-08-10 05:48:00,
2013-08-09 22:53:00,68.4,59.0,29.84,WNW,300,0.0,3.0,72,0.00,,---,0.00,VWS V14.01,2013-08-10 05:53:00,
2013-08-09 22:58:00,68.1,59.1,29.84,WNW,301,0.0,3.0,73,0.00,,---,0.00,VWS V14.01,2013-08-10 05:58:00,
2013-08-09 23:03:00,67.9,58.9,29.85,WNW,301,0.0,0.0,73,0.00,,---,0.00,VWS V14.01,2013-08-10 06:03:00,
2013-08-09 23:09:00,67.9,58.9,29.85,WNW,300,0.0,0.0,73,0.00,,---,0.00,VWS V14.01,2013-08-10 06:09:00,
2013-08-09 23:14:00,67.9,58.9,29.85,WNW,301,0.0,0.0,73,0.00,,---,0.00,VWS V14.01,2013-08-10 06:14:00,
2013-08-09 23:19:00,67.8,58.8,29.86,WNW,300,0.0,0.0,73,0.00,,---,0.00,VWS V14.01,2013-08-10 06:19:00,
2013-08-09 23:24:00,67.7,58.7,29.86,WNW,301,0.0,0.0,73,0.00,,---,0.00,VWS V14.01,2013-08-10 06:24:00,
2013-08-09 23:29:00,67.5,58.9,29.87,SSE,165,0.0,1.0,74,0.00,,---,0.00,VWS V14.01,2013-08-10 06:29:00,
2013-08-09 23:34:00,67.4,58.8,29.87,SSE,163,0.0,3.0,74,0.00,,---,0.00,VWS V14.01,2013-08-10 06:34:00,
2013-08-09 23:39:00,67.6,59.0,29.87,SSE,158,0.0,3.0,74,0.00,,---,0.00,VWS V14.01,2013-08-10 06:39:00,
2013-08-09 23:44:00,67.6,59.0,29.87,SSE,158,0.0,3.0,74,0.00,,---,0.00,VWS V14.01,2013-08-10 06:44:00,
2013-08-09 23:49:00,67.6,59.0,29.87,SSE,157,0.0,3.0,74,0.00,,---,0.00,VWS V14.01,2013-08-10 06:49:00,
2013-08-09 23:54:00,67.7,58.7,29.89,SSE,158,1.0,3.0,73,0.00,,---,0.00,VWS V14.01,2013-08-10 06:54:00,
2013-08-09 23:59:00,67.7,58.7,29.91,SSE,149,2.0,5.0,73,0.00,,---,0.00,VWS V14.01,2013-08-10 06:59:00,